Location: Gwatt
(46.7204°N, 7.6223°E)
Time: 07:49:31
(UTC+00:00)

S-56A Canister/Altair - Pass Details

Date: 27 January 2021
Orbit: 632 x 2501 km, 38.9° (Epoch: 08 March)

Event Time Altitude Azimuth Distance (km) Brightness Sun altitude
Rises 01:25:37 0° 234° (SW) 3,216 - -54.6°
Reaches altitude 10° 01:28:32 10° 221° (SW) 2,139 - -54.3°
Maximum altitude 01:32:22 25° 166° (SSE) 1,300 - -53.8°
Drops below altitude 10° 01:35:59 10° 111° (ESE) 2,013 - -53.3°
Sets 01:38:38 0° 97° (E) 2,980 - -53.0°
